| time (UTC) | temp C | wind direction | speed KPH | gust KPH | rain 1hr cm | rain 24hr cm | rain mn cm | humidity % | barometer mb |
| 20260505124946 | 8 | 0 | 0.0 | 0.0 | 0.00 | 0.00 | 0.00 | 72 | 1010.4 |
| 20260505124446 | 8 | 0 | 0.0 | 0.0 | 0.00 | 0.00 | 0.00 | 71 | 1010.4 |
| 20260505123946 | 8 | 0 | 0.0 | 0.0 | 0.00 | 0.00 | 0.00 | 71 | 1010.4 |
| 20260505123446 | 8 | 0 | 0.0 | 0.0 | 0.00 | 0.00 | 0.00 | 70 | 1010.3 |
| 20260505122945 | 8 | 0 | 0.0 | 0.0 | 0.00 | 0.00 | 0.00 | 70 | 1010.2 |
| 20260505121946 | 8 | 0 | 0.0 | 0.0 | 0.00 | 0.00 | 0.00 | 69 | 1010.2 |
| 20260505121447 | 8 | 0 | 0.0 | 0.0 | 0.00 | 0.00 | 0.00 | 69 | 1010.1 |
| 20260505120946 | 8 | 0 | 0.0 | 0.0 | 0.00 | 0.00 | 0.00 | 69 | 1010.1 |
| 20260505120446 | 8 | 0 | 0.0 | 0.0 | 0.00 | 0.00 | 0.00 | 69 | 1010.1 |
| 20260505115945 | 9 | 0 | 0.0 | 0.0 | 0.00 | 0.00 | 0.00 | 68 | 1010.0 |
| 20260505114946 | 9 | 0 | 0.0 | 0.0 | 0.00 | 0.00 | 0.00 | 68 | 1009.9 |
| 20260505114446 | 9 | 0 | 0.0 | 0.0 | 0.00 | 0.00 | 0.00 | 68 | 1009.8 |
| 20260505113946 | 9 | 0 | 0.0 | 0.0 | 0.00 | 0.00 | 0.00 | 67 | 1009.8 |
| 20260505113445 | 9 | 0 | 0.0 | 0.0 | 0.00 | 0.00 | 0.00 | 67 | 1009.8 |
| 20260505112446 | 10 | 0 | 0.0 | 0.0 | 0.00 | 0.00 | 0.00 | 66 | 1009.7 |
| 20260505111946 | 10 | 0 | 0.0 | 0.0 | 0.00 | 0.00 | 0.00 | 65 | 1009.7 |
| 20260505111446 | 10 | 0 | 0.0 | 0.0 | 0.00 | 0.00 | 0.00 | 64 | 1009.8 |
| 20260505110446 | 11 | 0 | 0.0 | 0.0 | 0.00 | 0.00 | 0.00 | 62 | 1009.9 |
| 20260505101947 | 12 | 9 | 3.2 | 8.0 | 0.00 | 0.00 | 0.00 | 58 | 1009.6 |
| 20260505101446 | 12 | 14 | 3.2 | 8.0 | 0.00 | 0.00 | 0.00 | 59 | 1009.5 |
| 20260505100946 | 12 | 14 | 3.2 | 8.0 | 0.00 | 0.00 | 0.00 | 58 | 1009.5 |
| 20260505100446 | 12 | 8 | 4.8 | 12.9 | 0.00 | 0.00 | 0.00 | 58 | 1009.4 |
| 20260505095946 | 12 | 10 | 3.2 | 12.9 | 0.00 | 0.00 | 0.00 | 59 | 1009.4 |
| 20260505095446 | 12 | 20 | 3.2 | 8.0 | 0.00 | 0.00 | 0.00 | 59 | 1009.3 |
| 20260505094945 | 12 | 14 | 3.2 | 12.9 | 0.00 | 0.00 | 0.00 | 58 | 1009.2 |
| 20260505094446 | 12 | 10 | 1.6 | 12.9 | 0.00 | 0.00 | 0.00 | 59 | 1009.1 |
| 20260505093946 | 12 | 0 | 0.0 | 0.0 | 0.00 | 0.00 | 0.00 | 59 | 1009.2 |
| 20260505093446 | 12 | 0 | 0.0 | 0.0 | 0.00 | 0.00 | 0.00 | 59 | 1009.1 |
| 20260505092946 | 12 | 0 | 0.0 | 0.0 | 0.00 | 0.00 | 0.00 | 59 | 1009.1 |
| 20260505091946 | 12 | 352 | 3.2 | 9.7 | 0.00 | 0.00 | 0.00 | 59 | 1009.0 |
| 20260505091446 | 12 | 355 | 3.2 | 9.7 | 0.00 | 0.00 | 0.00 | 60 | 1009.0 |
| 20260505090946 | 12 | 355 | 4.8 | 9.7 | 0.00 | 0.00 | 0.00 | 59 | 1008.9 |
| 20260505090446 | 12 | 355 | 3.2 | 12.9 | 0.00 | 0.00 | 0.00 | 59 | 1008.8 |
| 20260505085945 | 12 | 358 | 1.6 | 12.9 | 0.00 | 0.00 | 0.00 | 59 | 1008.7 |
| 20260505085446 | 12 | 11 | 1.6 | 12.9 | 0.00 | 0.00 | 0.00 | 59 | 1008.8 |
| 20260505084945 | 12 | 14 | 3.2 | 11.3 | 0.00 | 0.00 | 0.00 | 59 | 1008.7 |
| 20260505084446 | 12 | 6 | 3.2 | 11.3 | 0.00 | 0.00 | 0.00 | 59 | 1008.7 |
| 20260505083946 | 12 | 8 | 1.6 | 11.3 | 0.00 | 0.00 | 0.00 | 59 | 1008.7 |
| 20260505083446 | 12 | 6 | 1.6 | 12.9 | 0.00 | 0.00 | 0.00 | 59 | 1008.6 |
| 20260505082445 | 13 | 356 | 0.0 | 8.0 | 0.00 | 0.00 | 0.00 | 57 | 1008.6 |
| 20260505081945 | 13 | 16 | 0.0 | 1.6 | 0.00 | 0.00 | 0.00 | 57 | 1008.5 |
| 20260505081445 | 13 | 0 | 0.0 | 0.0 | 0.00 | 0.00 | 0.00 | 57 | 1008.5 |
| 20260505080946 | 13 | 1 | 0.0 | 4.8 | 0.00 | 0.00 | 0.00 | 56 | 1008.5 |
| 20260505080446 | 13 | 3 | 0.0 | 6.4 | 0.00 | 0.00 | 0.00 | 56 | 1008.5 |
| 20260505075946 | 13 | 3 | 0.0 | 6.4 | 0.00 | 0.00 | 0.00 | 56 | 1008.4 |
| 20260505074946 | 13 | 0 | 0.0 | 0.0 | 0.00 | 0.00 | 0.00 | 57 | 1008.4 |
| 20260505074446 | 13 | 0 | 0.0 | 0.0 | 0.00 | 0.00 | 0.00 | 57 | 1008.5 |
| 20260505073945 | 13 | 0 | 0.0 | 0.0 | 0.00 | 0.00 | 0.00 | 57 | 1008.4 |
| 20260505073445 | 13 | 0 | 0.0 | 0.0 | 0.00 | 0.00 | 0.00 | 56 | 1008.4 |
| 20260505072946 | 13 | 0 | 0.0 | 0.0 | 0.00 | 0.00 | 0.00 | 56 | 1008.4 |
| 20260505071446 | 13 | 0 | 0.0 | 0.0 | 0.00 | 0.00 | 0.00 | 54 | 1008.1 |
| 20260505070947 | 14 | 0 | 0.0 | 0.0 | 0.00 | 0.00 | 0.00 | 54 | 1008.0 |
| 20260505070446 | 14 | 0 | 0.0 | 0.0 | 0.00 | 0.00 | 0.00 | 54 | 1007.9 |
| 20260505065948 | 14 | 0 | 0.0 | 0.0 | 0.00 | 0.00 | 0.00 | 53 | 1007.8 |
| 20260505065446 | 14 | 0 | 0.0 | 0.0 | 0.00 | 0.00 | 0.00 | 54 | 1007.8 |
| 20260505064946 | 14 | 68 | 0.0 | 3.2 | 0.00 | 0.00 | 0.00 | 53 | 1007.8 |
| 20260505064446 | 14 | 84 | 0.0 | 3.2 | 0.00 | 0.00 | 0.00 | 53 | 1007.6 |
| 20260505063946 | 14 | 93 | 0.0 | 1.6 | 0.00 | 0.00 | 0.00 | 52 | 1007.7 |
| 20260505063446 | 15 | 0 | 0.0 | 0.0 | 0.00 | 0.00 | 0.00 | 53 | 1007.6 |
| 20260505061947 | 15 | 0 | 0.0 | 0.0 | 0.00 | 0.00 | 0.00 | 50 | 1007.5 |
| 20260505061446 | 15 | 0 | 0.0 | 0.0 | 0.00 | 0.00 | 0.00 | 50 | 1007.4 |
| 20260505060946 | 15 | 0 | 0.0 | 0.0 | 0.00 | 0.00 | 0.00 | 49 | 1007.5 |
| 20260505060446 | 15 | 0 | 0.0 | 0.0 | 0.00 | 0.00 | 0.00 | 49 | 1007.5 |
| 20260505055946 | 16 | 0 | 0.0 | 0.0 | 0.00 | 0.00 | 0.00 | 49 | 1007.5 |
| 20260505055446 | 16 | 0 | 0.0 | 0.0 | 0.00 | 0.00 | 0.00 | 47 | 1007.4 |
| 20260505054946 | 16 | 0 | 0.0 | 0.0 | 0.00 | 0.00 | 0.00 | 47 | 1007.4 |
| 20260505054446 | 16 | 0 | 0.0 | 0.0 | 0.00 | 0.00 | 0.00 | 46 | 1007.4 |
| 20260505053946 | 16 | 0 | 0.0 | 0.0 | 0.00 | 0.00 | 0.00 | 45 | 1007.3 |
| 20260505052946 | 17 | 0 | 0.0 | 0.0 | 0.00 | 0.00 | 0.00 | 43 | 1007.2 |
| 20260505052445 | 17 | 0 | 0.0 | 0.0 | 0.00 | 0.00 | 0.00 | 42 | 1007.1 |
| 20260505051945 | 18 | 0 | 0.0 | 0.0 | 0.00 | 0.00 | 0.00 | 41 | 1007.1 |
| 20260505051445 | 18 | 0 | 0.0 | 0.0 | 0.00 | 0.00 | 0.00 | 40 | 1007.1 |
| 20260505050945 | 18 | 0 | 0.0 | 0.0 | 0.00 | 0.00 | 0.00 | 40 | 1007.1 |
| 20260505050446 | 18 | 85 | 0.0 | 14.5 | 0.00 | 0.00 | 0.00 | 38 | 1007.0 |
| 20260505041446 | 18 | 0 | 0.0 | 0.0 | 0.00 | 0.00 | 0.00 | 40 | 1006.5 |
| 20260505040946 | 18 | 0 | 0.0 | 0.0 | 0.00 | 0.00 | 0.00 | 40 | 1006.4 |
| 20260505040446 | 18 | 0 | 0.0 | 0.0 | 0.00 | 0.00 | 0.00 | 40 | 1006.4 |
| 20260505035946 | 18 | 97 | 0.0 | 6.4 | 0.00 | 0.00 | 0.00 | 40 | 1006.3 |
| 20260505035446 | 18 | 97 | 0.0 | 6.4 | 0.00 | 0.00 | 0.00 | 41 | 1006.2 |
| 20260505034945 | 19 | 0 | 0.0 | 0.0 | 0.00 | 0.00 | 0.00 | 40 | 1006.1 |
| 20260505033946 | 20 | 0 | 0.0 | 0.0 | 0.00 | 0.00 | 0.00 | 38 | 1006.0 |
| 20260505033446 | 20 | 0 | 0.0 | 0.0 | 0.00 | 0.00 | 0.00 | 37 | 1006.0 |
| 20260505032946 | 20 | 0 | 0.0 | 0.0 | 0.00 | 0.00 | 0.00 | 36 | 1006.0 |
| 20260505032446 | 20 | 31 | 0.0 | 1.6 | 0.00 | 0.00 | 0.00 | 35 | 1005.9 |
| 20260505031946 | 21 | 31 | 0.0 | 1.6 | 0.00 | 0.00 | 0.00 | 35 | 1005.9 |
| 20260505031446 | 21 | 42 | 0.0 | 4.8 | 0.00 | 0.00 | 0.00 | 34 | 1005.8 |
| 20260505030946 | 21 | 42 | 0.0 | 4.8 | 0.00 | 0.00 | 0.00 | 33 | 1005.8 |
| 20260505030446 | 21 | 0 | 0.0 | 0.0 | 0.00 | 0.00 | 0.00 | 33 | 1005.8 |
| 20260505025946 | 21 | 0 | 0.0 | 0.0 | 0.00 | 0.00 | 0.00 | 33 | 1005.7 |
| 20260505024946 | 22 | 14 | 0.0 | 8.0 | 0.00 | 0.00 | 0.00 | 31 | 1005.6 |
| 20260505023946 | 22 | 13 | 1.6 | 11.3 | 0.00 | 0.00 | 0.00 | 31 | 1005.5 |
| 20260505023447 | 22 | 26 | 3.2 | 16.1 | 0.00 | 0.00 | 0.00 | 30 | 1005.5 |
| 20260505022946 | 22 | 25 | 1.6 | 16.1 | 0.00 | 0.00 | 0.00 | 29 | 1005.4 |
| 20260505022446 | 23 | 356 | 0.0 | 9.7 | 0.00 | 0.00 | 0.00 | 30 | 1005.4 |
| 20260505021946 | 23 | 22 | 1.6 | 14.5 | 0.00 | 0.00 | 0.00 | 29 | 1005.4 |
| 20260505021446 | 23 | 21 | 3.2 | 16.1 | 0.00 | 0.00 | 0.00 | 29 | 1005.4 |
| 20260505020946 | 23 | 18 | 3.2 | 16.1 | 0.00 | 0.00 | 0.00 | 29 | 1005.3 |
| 20260505020446 | 23 | 10 | 3.2 | 14.5 | 0.00 | 0.00 | 0.00 | 28 | 1005.5 |
| 20260505015947 | 23 | 6 | 3.2 | 14.5 | 0.00 | 0.00 | 0.00 | 28 | 1005.5 |
| 20260505014446 | 24 | 10 | 6.4 | 19.3 | 0.00 | 0.00 | 0.00 | 28 | 1005.6 |
| 20260505013946 | 24 | 3 | 4.8 | 17.7 | 0.00 | 0.00 | 0.00 | 27 | 1005.6 |
| 20260505013446 | 24 | 21 | 6.4 | 17.7 | 0.00 | 0.00 | 0.00 | 27 | 1005.6 |
| 20260505012947 | 24 | 20 | 8.0 | 20.9 | 0.00 | 0.00 | 0.00 | 25 | 1005.6 |
| 20260505012446 | 24 | 15 | 9.7 | 20.9 | 0.00 | 0.00 | 0.00 | 24 | 1005.6 |
| 20260505011946 | 24 | 14 | 11.3 | 20.9 | 0.00 | 0.00 | 0.00 | 26 | 1005.7 |
| 20260505011446 | 25 | 14 | 9.7 | 27.4 | 0.00 | 0.00 | 0.00 | 25 | 1005.7 |
| 20260505010946 | 25 | 12 | 8.0 | 27.4 | 0.00 | 0.00 | 0.00 | 25 | 1005.7 |
| 20260505010446 | 25 | 2 | 9.7 | 17.7 | 0.00 | 0.00 | 0.00 | 25 | 1005.6 |
| 20260505005946 | 25 | 350 | 6.4 | 16.1 | 0.00 | 0.00 | 0.00 | 25 | 1005.6 |
| 20260505005447 | 25 | 355 | 8.0 | 16.1 | 0.00 | 0.00 | 0.00 | 25 | 1005.7 |
| 20260505004446 | 25 | 18 | 9.7 | 19.3 | 0.00 | 0.00 | 0.00 | 25 | 1005.6 |
| 20260505003945 | 25 | 19 | 8.0 | 19.3 | 0.00 | 0.00 | 0.00 | 25 | 1005.7 |
| 20260505003446 | 25 | 13 | 4.8 | 19.3 | 0.00 | 0.00 | 0.00 | 25 | 1005.6 |
| 20260505002946 | 25 | 358 | 8.0 | 16.1 | 0.00 | 0.00 | 0.00 | 26 | 1005.6 |
| 20260505002445 | 25 | 5 | 9.7 | 24.1 | 0.00 | 0.00 | 0.00 | 27 | 1005.9 |
| 20260505001948 | 25 | 9 | 11.3 | 24.1 | 0.00 | 0.00 | 0.00 | 26 | 1005.8 |
| 20260505001446 | 25 | 2 | 9.7 | 19.3 | 0.00 | 0.00 | 0.00 | 25 | 1005.7 |
| 20260505000946 | 25 | 353 | 9.7 | 19.3 | 0.00 | 0.00 | 0.00 | 27 | 1005.8 |
| 20260505000446 | 25 | 355 | 11.3 | 20.9 | 0.00 | 0.00 | 0.00 | 25 | 1005.8 |
| 20260504235946 | 25 | 6 | 11.3 | 20.9 | 0.00 | 0.00 | 0.00 | 25 | 1005.7 |
| 20260504235445 | 25 | 14 | 12.9 | 22.5 | 0.00 | 0.00 | 0.00 | 24 | 1005.7 |
| 20260504234946 | 25 | 18 | 12.9 | 24.1 | 0.00 | 0.00 | 0.00 | 23 | 1005.8 |
| 20260504234446 | 25 | 14 | 11.3 | 24.1 | 0.00 | 0.00 | 0.00 | 25 | 1005.8 |
| 20260504233945 | 25 | 13 | 11.3 | 24.1 | 0.00 | 0.00 | 0.00 | 26 | 1005.7 |
| 20260504233446 | 25 | 27 | 12.9 | 24.1 | 0.00 | 0.00 | 0.00 | 26 | 1005.7 |
| 20260504232945 | 25 | 34 | 14.5 | 24.1 | 0.00 | 0.00 | 0.00 | 26 | 1005.8 |
| 20260504232446 | 25 | 39 | 14.5 | 24.1 | 0.00 | 0.00 | 0.00 | 26 | 1005.8 |
| 20260504231946 | 25 | 39 | 12.9 | 20.9 | 0.00 | 0.00 | 0.00 | 26 | 1005.9 |
| 20260504231446 | 26 | 23 | 11.3 | 24.1 | 0.00 | 0.00 | 0.00 | 26 | 1005.9 |
| 20260504230946 | 26 | 356 | 9.7 | 24.1 | 0.00 | 0.00 | 0.00 | 27 | 1005.8 |
| 20260504230446 | 25 | 358 | 11.3 | 29.0 | 0.00 | 0.00 | 0.00 | 27 | 1005.8 |
| 20260504225446 | 26 | 32 | 9.7 | 24.1 | 0.00 | 0.00 | 0.00 | 28 | 1005.8 |
| 20260504224945 | 25 | 9 | 9.7 | 22.5 | 0.00 | 0.00 | 0.00 | 28 | 1005.9 |
| 20260504224446 | 25 | 344 | 9.7 | 24.1 | 0.00 | 0.00 | 0.00 | 28 | 1006.0 |
| 20260504223946 | 25 | 349 | 11.3 | 24.1 | 0.00 | 0.00 | 0.00 | 28 | 1006.0 |
| 20260504223446 | 25 | 359 | 12.9 | 22.5 | 0.00 | 0.00 | 0.00 | 27 | 1006.0 |
| 20260504222946 | 25 | 353 | 9.7 | 22.5 | 0.00 | 0.00 | 0.00 | 27 | 1005.9 |
| 20260504222445 | 25 | 351 | 9.7 | 17.7 | 0.00 | 0.00 | 0.00 | 27 | 1005.9 |
| 20260504221946 | 25 | 349 | 11.3 | 22.5 | 0.00 | 0.00 | 0.00 | 26 | 1005.9 |
| 20260504220946 | 25 | 350 | 9.7 | 20.9 | 0.00 | 0.00 | 0.00 | 26 | 1006.0 |
| 20260504220446 | 25 | 358 | 11.3 | 17.7 | 0.00 | 0.00 | 0.00 | 26 | 1006.0 |
| 20260504215946 | 25 | 350 | 9.7 | 19.3 | 0.00 | 0.00 | 0.00 | 27 | 1006.0 |
| 20260504215446 | 25 | 344 | 9.7 | 19.3 | 0.00 | 0.00 | 0.00 | 26 | 1006.0 |
| 20260504214946 | 25 | 347 | 11.3 | 17.7 | 0.00 | 0.00 | 0.00 | 27 | 1005.9 |
| 20260504214446 | 25 | 355 | 11.3 | 22.5 | 0.00 | 0.00 | 0.00 | 28 | 1006.1 |
| 20260504213446 | 25 | 359 | 11.3 | 22.5 | 0.00 | 0.00 | 0.00 | 29 | 1006.3 |
| 20260504212945 | 25 | 2 | 11.3 | 22.5 | 0.00 | 0.00 | 0.00 | 28 | 1006.2 |
| 20260504211946 | 25 | 336 | 11.3 | 25.7 | 0.00 | 0.00 | 0.00 | 28 | 1006.1 |
| 20260504211446 | 25 | 328 | 12.9 | 25.7 | 0.00 | 0.00 | 0.00 | 29 | 1006.1 |
| 20260504210446 | 25 | 357 | 12.9 | 24.1 | 0.00 | 0.00 | 0.00 | 29 | 1006.2 |
| 20260504205946 | 25 | 346 | 12.9 | 22.5 | 0.00 | 0.00 | 0.00 | 29 | 1006.1 |
| 20260504205446 | 25 | 346 | 11.3 | 22.5 | 0.00 | 0.00 | 0.00 | 30 | 1006.2 |
| 20260504204946 | 25 | 2 | 12.9 | 24.1 | 0.00 | 0.00 | 0.00 | 30 | 1006.2 |
| 20260504204446 | 25 | 4 | 11.3 | 24.1 | 0.00 | 0.00 | 0.00 | 29 | 1006.2 |
| 20260504203446 | 25 | 2 | 12.9 | 22.5 | 0.00 | 0.00 | 0.00 | 33 | 1006.2 |
| 20260504202446 | 25 | 349 | 11.3 | 20.9 | 0.00 | 0.00 | 0.00 | 33 | 1006.3 |
| 20260504201945 | 25 | 355 | 11.3 | 22.5 | 0.00 | 0.00 | 0.00 | 31 | 1006.3 |
| 20260504201446 | 25 | 7 | 11.3 | 25.7 | 0.00 | 0.00 | 0.00 | 32 | 1006.3 |
| 20260504200946 | 25 | 354 | 11.3 | 25.7 | 0.00 | 0.00 | 0.00 | 33 | 1006.3 |
| 20260504200445 | 24 | 345 | 11.3 | 20.9 | 0.00 | 0.00 | 0.00 | 34 | 1006.4 |
| 20260504195946 | 24 | 348 | 11.3 | 20.9 | 0.00 | 0.00 | 0.00 | 33 | 1006.4 |
| 20260504195446 | 24 | 349 | 11.3 | 20.9 | 0.00 | 0.00 | 0.00 | 33 | 1006.4 |
| 20260504194946 | 24 | 350 | 9.7 | 19.3 | 0.00 | 0.00 | 0.00 | 34 | 1006.4 |
| 20260504194446 | 24 | 351 | 11.3 | 22.5 | 0.00 | 0.00 | 0.00 | 34 | 1006.5 |
| 20260504193945 | 24 | 359 | 11.3 | 22.5 | 0.00 | 0.00 | 0.00 | 34 | 1006.4 |
| 20260504193446 | 24 | 14 | 9.7 | 24.1 | 0.00 | 0.00 | 0.00 | 34 | 1006.5 |
| 20260504192446 | 24 | 6 | 9.7 | 19.3 | 0.00 | 0.00 | 0.00 | 34 | 1006.6 |
| 20260504191446 | 23 | 359 | 8.0 | 17.7 | 0.00 | 0.00 | 0.00 | 37 | 1006.6 |
| 20260504190946 | 23 | 11 | 11.3 | 20.9 | 0.00 | 0.00 | 0.00 | 34 | 1006.7 |
| 20260504185946 | 23 | 7 | 11.3 | 20.9 | 0.00 | 0.00 | 0.00 | 35 | 1006.8 |
| 20260504185446 | 23 | 357 | 11.3 | 19.3 | 0.00 | 0.00 | 0.00 | 35 | 1006.8 |
| 20260504184947 | 23 | 356 | 11.3 | 19.3 | 0.00 | 0.00 | 0.00 | 36 | 1006.8 |
| 20260504184446 | 23 | 359 | 11.3 | 22.5 | 0.00 | 0.00 | 0.00 | 37 | 1006.9 |
| 20260504182946 | 23 | 343 | 9.7 | 20.9 | 0.00 | 0.00 | 0.00 | 36 | 1006.9 |
| 20260504182446 | 23 | 6 | 9.7 | 19.3 | 0.00 | 0.00 | 0.00 | 38 | 1006.9 |
| 20260504181946 | 22 | 12 | 6.4 | 19.3 | 0.00 | 0.00 | 0.00 | 38 | 1006.9 |
| 20260504181446 | 23 | 7 | 4.8 | 14.5 | 0.00 | 0.00 | 0.00 | 37 | 1006.9 |
| 20260504180946 | 22 | 1 | 8.0 | 19.3 | 0.00 | 0.00 | 0.00 | 38 | 1007.0 |
| 20260504180446 | 22 | 356 | 9.7 | 19.3 | 0.00 | 0.00 | 0.00 | 38 | 1007.0 |
| 20260504175946 | 22 | 351 | 6.4 | 19.3 | 0.00 | 0.00 | 0.00 | 40 | 1006.9 |
| 20260504175446 | 22 | 8 | 8.0 | 19.3 | 0.00 | 0.00 | 0.00 | 40 | 1007.0 |
| 20260504174945 | 22 | 13 | 8.0 | 17.7 | 0.00 | 0.00 | 0.00 | 39 | 1007.0 |
| 20260504173946 | 22 | 13 | 3.2 | 17.7 | 0.00 | 0.00 | 0.00 | 40 | 1007.0 |
| 20260504173446 | 21 | 23 | 6.4 | 19.3 | 0.00 | 0.00 | 0.00 | 39 | 1007.1 |
| 20260504172946 | 21 | 8 | 8.0 | 19.3 | 0.00 | 0.00 | 0.00 | 37 | 1007.1 |
| 20260504172447 | 21 | 15 | 8.0 | 17.7 | 0.00 | 0.00 | 0.00 | 40 | 1007.1 |
| 20260504171946 | 21 | 22 | 8.0 | 19.3 | 0.00 | 0.00 | 0.00 | 40 | 1007.2 |
| 20260504171447 | 21 | 12 | 4.8 | 19.3 | 0.00 | 0.00 | 0.00 | 41 | 1007.2 |
| 20260504170946 | 21 | 11 | 3.2 | 19.3 | 0.00 | 0.00 | 0.00 | 42 | 1007.2 |
| 20260504170446 | 20 | 15 | 3.2 | 19.3 | 0.00 | 0.00 | 0.00 | 40 | 1007.2 |
| 20260504160446 | 16 | 0 | 0.0 | 0.0 | 0.00 | 0.00 | 0.00 | 57 | 1007.2 |
| 20260504150946 | 13 | 0 | 0.0 | 0.0 | 0.00 | 0.00 | 0.00 | 71 | 1007.5 |
| 20260504150446 | 12 | 0 | 0.0 | 0.0 | 0.00 | 0.00 | 0.00 | 72 | 1007.5 |